This is the latest recevied weather packets stored in our database for station/object N3LF. If no packets are shown the sender has not sent any weather packets the latest 1 day(s).
| Time | Temp. | Humidity | Pressure | Rain* | Wind** | Luminosity | Snow |
|---|---|---|---|---|---|---|---|
| 1778099868 | 14.44° C | 90% | 1016.4 hPa | 0 mm | - | 201 W/m² | - |
| 1778098959 | 14.44° C | 86% | 1017 hPa | 0 mm | - | 71 W/m² | - |
| 1778097139 | 14.44° C | 89% | 1016.2 hPa | 0 mm | - | 119 W/m² | - |
| 1778096836 | 14.44° C | 88% | 1016.3 hPa | 0 mm | - | 100 W/m² | - |
| 1778092592 | 14.44° C | 86% | 1016.6 hPa | 0 mm | - | 196 W/m² | - |
| 1778089562 | 14.44° C | 83% | 1016.6 hPa | 0 mm | - | 286 W/m² | - |
| 1778086534 | 11.11° C | 99% | 1016.3 hPa | 0 mm | - | 249 W/m² | - |
| 1778085016 | 10.56° C | 99% | 1016.7 hPa | 0 mm | - | 80 W/m² | - |
| 1778083502 | 11.11° C | 99% | 1017.1 hPa | 0 mm | - | 66 W/m² | - |
| 1778083199 | 10.56° C | 99% | 1016.9 hPa | 0 mm | - | 98 W/m² | - |
| 1778079972 | 10.56° C | 99% | 1016.3 hPa | 0 mm | - | 52 W/m² | - |
| 1778079366 | 10.56° C | 99% | 1016.2 hPa | 0 mm | - | 70 W/m² | - |
| 1778079063 | 10.56° C | 99% | 1016 hPa | 0 mm | - | 78 W/m² | - |
| 1778077550 | 10° C | 99% | 1015.6 hPa | 0 mm | - | 63 W/m² | - |
| 1778077248 | 10° C | 99% | 1015.8 hPa | 0 mm | - | 66 W/m² | - |
| 1778076644 | 10° C | 99% | 1015.4 hPa | 0 mm | - | 97 W/m² | - |
| 1778075735 | 10° C | 99% | 1015.4 hPa | 0 mm | - | 58 W/m² | - |
| 1778075431 | 10° C | 99% | 1015.1 hPa | 0 mm | - | 49 W/m² | - |
| 1778074218 | 10° C | 99% | 1014.8 hPa | 0 mm | - | 34 W/m² | - |
| 1778073915 | 10° C | 99% | 1014.8 hPa | 0 mm | - | 33 W/m² | - |
| 1778071493 | 10° C | 99% | 1014.6 hPa | 0 mm | - | 18 W/m² | - |
| 1778071191 | 10° C | 99% | 1014.7 hPa | 0 mm | - | 14 W/m² | - |
| 1778070889 | 10° C | 99% | 1014.6 hPa | 0 mm | - | 14 W/m² | - |
| 1778070283 | 10° C | 99% | 1014.6 hPa | 0 mm | - | 15 W/m² | - |
| 1778069678 | 10° C | 99% | 1014.4 hPa | 0 mm | - | 12 W/m² | - |
* Rain latest hour (hover to see other rain measurements)
** Current wind speed in m/s (hover to see current wind gust speed)